Content
SEND FEEDBACK

Daily
Averages
Monthly
Summary
United States of America

ANN ARBOR, MICHIGAN


Home > North America > United States > Michigan
Elevation: 759 feet     Latitude: 42 17N     Longitude: 083 43W

WEATHER
 
SELECT A DAY
Number of Records: 207,968;   Date Range: 1/1/95 - 11/21/14
 
SHARE

PRINT THIS DATA

[ ← Previous Day ]
WEATHER ALMANAC - JANUARY 27, 2013
[ Next Day → ]
[ °C ]   °F
Weather ElementAverageHighLow
Temperature20.1 °F30 °F (11:53 pm)3.2 °F (4:18 am)
Dewpoint16.2 °F26.6 °F (10:22 pm)-0.4 °F (4:18 am)
Humidity85.6 %100 % (2:09 am)61 % (2:53 pm)
Barometer30.34 in30.50 in (7:53 am)30.13 in (11:10 pm)
Wind Speed5.9 mph15 mph (8:53 pm)
Wind Gust20.7 mph (11:10 pm)
Weather ElementAverage
Visibility4.2 mi
Wind DirectionESE (96.3 °)

Weather ElementTotal
Precipitation0.54 in
Heating Degree Days48.4 (Base 65)
Averaged from 54 records on January 27, 2013
WEATHER CONDITIONS BREAKOUT
WIND DIRECTION BREAKOUT
WEATHER BY HOUR - JANUARY 27, 2013
[ °C ]   °F
Local TimeTemperatureDewpointHumidityBarometerVisibilityWind DirectionWind SpeedGust SpeedPrecipitationEventsConditions
1:53 AM10.0 °F7.0 °F87 %30.48 in2.0 miCalmClear
2:05 AM8.6 °F6.8 °F92 %30.43 in3.0 miCalmClear
2:09 AM6.8 °F6.8 °F100 %30.43 in1.8 miCalmClear
2:14 AM5.0 °F3.2 °F92 %30.43 in0.8 miCalmClear
2:30 AM8.6 °F5.0 °F85 %30.43 in2.0 miCalmClear
2:37 AM8.6 °F5.0 °F85 %30.43 in5.0 miCalmClear
2:53 AM10.9 °F7.0 °F84 %30.48 in6.0 miCalmClear
3:53 AM9.0 °F6.1 °F88 %30.47 in6.0 miCalmClear
4:18 AM3.2 °F-0.4 °F85 %30.42 in2.5 miCalmClear
4:22 AM5.0 °F1.4 °F85 %30.42 in0.8 miCalmClear
4:35 AM5.0 °F1.4 °F85 %30.42 in1.5 miCalmClear
4:38 AM6.8 °F1.4 °F79 %30.42 in4.0 miCalmPartly Cloudy
4:53 AM3.9 °F1.9 °F91 %30.48 in7.0 miCalmPartly Cloudy
5:53 AM7.0 °F3.0 °F84 %30.49 in9.0 miCalmPartly Cloudy
6:53 AM10.9 °F8.1 °F88 %30.49 in9.0 miCalmMostly Cloudy
7:53 AM7.0 °F3.9 °F87 %30.50 in7.0 miCalmPartly Cloudy
8:53 AM15.1 °F14.0 °F95 %30.50 in8.0 miCalmClear
9:53 AM19.9 °F12.9 °F74 %30.48 in10.0 miSouth (190°)8.1 mphClear
10:53 AM23.0 °F12.9 °F65 %30.48 in10.0 miSouth (180°)8.1 mphClear
11:53 AM24.1 °F12.9 °F62 %30.48 in10.0 miSouth (190°)9.2 mphOvercast
12:53 PM25.0 °F14.0 °F63 %30.46 in10.0 miSouth (190°)11.5 mphOvercast
1:53 PM26.1 °F15.1 °F63 %30.42 in10.0 miSouth (180°)5.8 mphOvercast
2:53 PM27.0 °F15.1 °F61 %30.38 in10.0 miSE (140°)6.9 mphMostly Cloudy
3:53 PM27.0 °F17.1 °F66 %30.36 in10.0 miSE (140°)8.1 mphPartly Cloudy
4:53 PM27.0 °F18.0 °F69 %30.35 in9.0 miSE (140°)6.9 mphOvercast
5:53 PM27.0 °F19.9 °F75 %30.37 in5.0 miSSE (150°)5.8 mph0.00 inSnowLight Snow
6:03 PM26.6 °F21.2 °F80 %30.33 in2.0 miSSE (160°)4.6 mph0.00 inSnowLight Snow
6:08 PM26.6 °F21.2 °F80 %30.33 in1.2 miSSE (150°)6.9 mph0.00 inSnowLight Snow
6:19 PM24.8 °F21.2 °F86 %30.32 in0.8 miSE (140°)6.9 mph0.01 inSnowLight Snow
6:26 PM24.8 °F23.0 °F93 %30.32 in0.5 miSE (140°)6.9 mph0.02 inFog-SnowSnow
6:53 PM25.0 °F24.1 °F96 %30.35 in1.5 miSE (140°)8.1 mph0.07 inSnowLight Snow
7:17 PM24.8 °F23.0 °F93 %30.29 in1.2 miSE (130°)6.9 mph0.02 inSnowLight Snow
7:22 PM24.8 °F21.2 °F86 %30.28 in2.0 miESE (120°)8.1 mph0.02 inSnowLight Snow
7:31 PM24.8 °F23.0 °F93 %30.29 in1.2 miEast (100°)8.1 mph0.04 inSnowLight Snow
7:42 PM24.8 °F23.0 °F93 %30.28 in1.5 miESE (110°)9.2 mph0.05 inSnowLight Snow
7:47 PM24.8 °F23.0 °F93 %30.28 in0.8 miESE (120°)6.9 mph0.05 inSnowLight Snow
7:53 PM25.0 °F21.9 °F88 %30.32 in0.8 miEast (100°)9.2 mph0.06 inSnowLight Snow
7:59 PM24.8 °F23.0 °F93 %30.27 in0.8 miEast (100°)6.9 mph0.01 inSnowLight Snow
8:12 PM24.8 °F23.0 °F93 %30.26 in1.0 miEast (90°)6.9 mph0.02 inSnowLight Snow
8:20 PM24.8 °F23.0 °F93 %30.24 in1.8 miEast (80°)9.2 mph0.02 inSnowLight Snow
8:27 PM24.8 °F23.0 °F93 %30.26 in2.5 miEast (90°)8.1 mph0.02 inSnowLight Snow
8:34 PM24.8 °F23.0 °F93 %30.26 in4.0 miSSE (150°)5.8 mph0.02 inOvercast
8:44 PM24.8 °F23.0 °F93 %30.24 in2.5 miSE (140°)10.4 mph0.02 inSnowLight Snow
8:50 PM24.8 °F24.8 °F100 %30.21 in1.2 miESE (120°)12.7 mph0.02 inSnowLight Snow
8:53 PM25.0 °F23.0 °F92 %30.25 in1.2 miESE (120°)15.0 mph0.02 inSnowLight Snow
9:00 PM26.6 °F23.0 °F86 %30.22 in2.0 miSE (130°)11.5 mph0.00 inSnowLight Snow
9:11 PM26.6 °F24.8 °F93 %30.21 in4.0 miSSE (150°)11.5 mph19.6 mph0.00 inOvercast
9:53 PM27.0 °F25.0 °F92 %30.24 in4.0 miSSE (160°)10.4 mph0.01 inOvercast
10:06 PM26.6 °F24.8 °F93 %30.20 in4.0 miSSE (150°)8.1 mph0.00 inOvercast
10:22 PM28.4 °F26.6 °F93 %30.19 in4.0 miSE (140°)9.2 mph0.00 inRainLight Freezing Rain
10:44 PM28.4 °F24.8 °F86 %30.16 in5.0 miSSE (150°)8.1 mph0.00 inOvercast
10:53 PM28.0 °F25.0 °F88 %30.21 in6.0 miSouth (180°)9.2 mph0.00 inOvercast
11:10 PM28.4 °F24.8 °F86 %30.13 in6.0 miSSE (160°)12.7 mph20.7 mphOvercast
11:53 PM30.0 °F26.1 °F85 %30.15 in4.0 miSouth (180°)11.5 mph20.7 mph0.04 inRainLight Freezing Rain
Hourly data recorded from KARB, located miles away from Ann Arbor, Michigan







STORIES FROM OUR PARTNERS